Powrót do katalogu

SATCOM 3 DEB

LostHEO
NORAD 32983·DEBRIS·🇺🇸 United States

Wystrzelony Dec 7, 1979 z Cape Canaveral Space Force Station

Loading…

Następne Przeloty (najbliższe 24 godziny)

TLE

NieaktualneSource: Space-Track

Epoka: May 14, 2011, 08:08 UTC

1 32983U 79101J   11134.33946822 -.00000157 +00000-0 +10000-3 0  9998
2 32983 009.4068 265.9615 4798259 142.7681 262.6095 01.82309304021149

Śledź SATCOM 3 DEB w czasie rzeczywistym z AllMySat

Download on the App Store